FW0878 Weather Reports


Display with metric or nautical units.
time (UTC)temp
F
wind
direction
speed
MPH
gust
MPH
rain 1hr
in
rain 24hr
in
rain mn
in
humidity
%
barometer
mb
20260502162807 69 45 5.0 10.0 0.00 0.00 0.00 58 1012.2
20260502162307 69 20 5.0 10.0 0.00 0.00 0.00 58 1012.3
20260502161807 69 317 5.0 9.0 0.00 0.00 0.00 58 1012.4
20260502161307 69 317 3.0 8.0 0.00 0.00 0.00 58 1012.5
20260502160808 68 22 3.0 8.0 0.00 0.00 0.00 58 1012.5
20260502160307 68 44 2.0 6.0 0.00 0.00 0.00 58 1012.7
20260502152307 66 338 1.0 2.0 0.00 0.00 0.00 64 1013.0
20260502151807 67 43 1.0 1.0 0.00 0.00 0.00 64 1013.1
20260502151307 67 23 0.0 0.0 0.00 0.00 0.00 63 1013.2
20260502150307 67 42 0.0 2.0 0.00 0.00 0.00 62 1013.0
20260502130307 69 337 1.0 2.0 0.00 0.00 0.00 56 1014.1
20260502123807 69 338 1.0 3.0 0.00 0.00 0.00 56 1014.1
20260502123308 70 315 3.0 5.0 0.00 0.00 0.00 55 1014.1
20260502122807 70 318 2.0 7.0 0.00 0.00 0.00 55 1014.2
20260502121807 70 1 3.0 8.0 0.00 0.00 0.00 52 1014.2
20260502121307 70 314 1.0 8.0 0.00 0.00 0.00 51 1014.1
20260502120807 70 316 3.0 8.0 0.00 0.00 0.00 51 1014.2
20260502120307 70 2 2.0 5.0 0.00 0.00 0.00 50 1014.3
20260502115808 70 294 1.0 3.0 0.00 0.00 0.00 50 1014.2
20260502115307 69 314 1.0 3.0 0.00 0.00 0.00 48 1014.3
20260502114807 70 230 1.0 2.0 0.00 0.00 0.00 48 1014.4
20260502114307 70 338 0.0 1.0 0.00 0.00 0.00 46 1014.5
20260502113807 70 339 1.0 3.0 0.00 0.00 0.00 46 1014.3
20260502113307 70 40 1.0 2.0 0.00 0.00 0.00 45 1014.5
20260502112808 70 250 1.0 3.0 0.00 0.00 0.00 45 1014.4
20260502112307 70 22 2.0 6.0 0.00 0.00 0.00 45 1014.5
20260502111806 70 336 1.0 3.0 0.00 0.00 0.00 45 1014.6
20260502111307 70 0 1.0 3.0 0.00 0.00 0.00 45 1014.6
20260502110807 70 205 1.0 5.0 0.00 0.00 0.00 46 1014.6
20260502110307 69 22 1.0 5.0 0.00 0.00 0.00 46 1014.6
20260502105307 68 295 0.0 2.0 0.00 0.00 0.00 50 1014.2
20260502104308 69 272 0.0 0.0 0.00 0.00 0.00 50 1014.3
20260502103808 69 335 0.0 1.0 0.00 0.00 0.00 50 1014.2
20260502103308 69 358 1.0 1.0 0.00 0.00 0.00 49 1014.2
20260502102807 69 338 0.0 1.0 0.00 0.00 0.00 49 1014.2
20260502101806 70 22 0.0 1.0 0.00 0.00 0.00 48 1014.2
20260502100807 71 340 1.0 3.0 0.00 0.00 0.00 48 1014.3
20260502100307 71 0 1.0 3.0 0.00 0.00 0.00 48 1014.3
20260502091307 73 270 0.0 1.0 0.00 0.00 0.00 46 1014.6
20260502070306 75 293 4.0 12.0 0.00 0.00 0.00 41 1013.9
20260502065807 75 45 6.0 12.0 0.00 0.00 0.00 41 1013.8
20260502065307 76 295 2.0 13.0 0.00 0.00 0.00 41 1013.9
20260502064808 76 340 5.0 13.0 0.00 0.00 0.00 41 1013.9
20260502064307 76 339 6.0 13.0 0.00 0.00 0.00 40 1013.8
20260502063807 76 19 6.0 12.0 0.00 0.00 0.00 40 1013.8
20260502063307 76 41 7.0 14.0 0.00 0.00 0.00 40 1013.7
20260502062807 76 152 9.0 20.0 0.00 0.00 0.00 40 1013.9
20260502062307 76 2 7.0 15.0 0.00 0.00 0.00 40 1013.9
20260502061806 76 49 5.0 15.0 0.00 0.00 0.00 40 1013.7
20260502061307 76 319 6.0 13.0 0.00 0.00 0.00 40 1013.6
20260502060808 77 21 7.0 15.0 0.00 0.00 0.00 40 1013.7
20260502060308 77 337 8.0 15.0 0.00 0.00 0.00 39 1013.7
20260502055807 78 342 6.0 13.0 0.00 0.00 0.00 40 1013.6
20260502055308 78 294 5.0 12.0 0.00 0.00 0.00 39 1013.9
20260502054807 77 87 6.0 15.0 0.00 0.00 0.00 40 1013.9
20260502052807 76 339 3.0 14.0 0.00 0.00 0.00 41 1013.9
20260502052307 76 0 5.0 14.0 0.00 0.00 0.00 41 1014.2
20260502051807 76 313 5.0 13.0 0.00 0.00 0.00 41 1014.3
20260502051307 76 316 7.0 20.0 0.00 0.00 0.00 40 1014.1
20260502050806 76 294 7.0 13.0 0.00 0.00 0.00 40 1014.1
20260502045807 76 0 6.0 12.0 0.00 0.00 0.00 40 1014.4
20260502045307 76 0 5.0 12.0 0.00 0.00 0.00 40 1014.4
20260502044807 76 42 6.0 9.0 0.00 0.00 0.00 40 1014.5
20260502044308 76 317 3.0 14.0 0.00 0.00 0.00 41 1014.5
20260502043807 76 0 6.0 14.0 0.00 0.00 0.00 39 1014.7
20260502043308 76 295 5.0 12.0 0.00 0.00 0.00 41 1014.7
20260502042808 76 48 5.0 13.0 0.00 0.00 0.00 41 1014.6
20260502042307 76 315 5.0 13.0 0.00 0.00 0.00 41 1014.7
20260502041807 76 45 3.0 12.0 0.00 0.00 0.00 42 1014.6
20260502041308 76 0 6.0 13.0 0.00 0.00 0.00 41 1014.7
20260502040807 75 340 4.0 10.0 0.00 0.00 0.00 42 1014.9
20260502040307 75 341 5.0 10.0 0.00 0.00 0.00 43 1015.0
20260502035807 75 18 3.0 13.0 0.00 0.00 0.00 43 1015.0
20260502035308 74 111 6.0 10.0 0.00 0.00 0.00 44 1015.2
20260502034807 74 359 5.0 10.0 0.00 0.00 0.00 44 1015.1
20260502034307 74 338 7.0 13.0 0.00 0.00 0.00 44 1015.3
20260502033807 74 338 5.0 13.0 0.00 0.00 0.00 44 1015.4
20260502032806 73 22 4.0 12.0 0.00 0.00 0.00 45 1015.7
20260502032307 73 18 4.0 15.0 0.00 0.00 0.00 45 1015.6
20260502030807 73 359 6.0 16.0 0.00 0.00 0.00 45 1015.9
20260502030307 73 342 5.0 10.0 0.00 0.00 0.00 45 1015.9
20260502025808 74 340 3.0 8.0 0.00 0.00 0.00 45 1016.0
20260502025308 73 293 5.0 10.0 0.00 0.00 0.00 45 1016.2
20260502024808 72 65 5.0 10.0 0.00 0.00 0.00 46 1016.2
20260502024307 72 64 5.0 14.0 0.00 0.00 0.00 47 1016.3
20260502023307 72 317 7.0 13.0 0.00 0.00 0.00 47 1016.6
20260502022808 72 356 7.0 14.0 0.00 0.00 0.00 48 1016.8
20260502021307 71 338 5.0 12.0 0.00 0.00 0.00 49 1017.0
20260502020807 71 316 5.0 9.0 0.00 0.00 0.00 49 1017.1
20260502020307 70 85 5.0 10.0 0.00 0.00 0.00 50 1017.2
20260502015807 70 340 6.0 12.0 0.00 0.00 0.00 50 1017.5
20260502015307 70 46 4.0 13.0 0.00 0.00 0.00 50 1017.5
20260502014808 70 65 5.0 9.0 0.00 0.00 0.00 50 1017.5
20260502013807 70 44 7.0 15.0 0.00 0.00 0.00 50 1017.7
20260502012807 70 338 2.0 8.0 0.00 0.00 0.00 51 1018.1
20260502012307 70 318 3.0 9.0 0.00 0.00 0.00 50 1018.0
20260502011806 69 0 6.0 10.0 0.00 0.00 0.00 51 1018.3
20260502011307 69 45 5.0 10.0 0.00 0.00 0.00 51 1018.2
20260502010307 69 359 3.0 9.0 0.00 0.00 0.00 51 1018.4
20260502005808 69 21 5.0 12.0 0.00 0.00 0.00 51 1018.4
20260502005308 69 22 5.0 12.0 0.00 0.00 0.00 51 1018.6
20260502004308 69 17 3.0 8.0 0.00 0.00 0.00 51 1018.6
20260502003808 69 43 4.0 10.0 0.00 0.00 0.00 51 1018.7
20260502002807 69 318 5.0 10.0 0.00 0.00 0.00 51 1018.6
20260502002307 69 45 3.0 14.0 0.00 0.00 0.00 51 1018.7
20260502001807 69 68 7.0 14.0 0.00 0.00 0.00 51 1018.6
20260502001308 69 41 6.0 13.0 0.00 0.00 0.00 51 1018.8
20260502000310 69 21 4.0 15.0 0.00 0.00 0.00 51 1018.9
20260501235807 69 0 6.0 15.0 0.00 0.00 0.00 51 1018.7
20260501235307 69 2 5.0 16.0 0.00 0.00 0.00 51 1018.9
20260501234807 69 88 6.0 13.0 0.00 0.00 0.00 51 1018.8
20260501234307 68 1 5.0 9.0 0.00 0.00 0.00 51 1018.8
20260501233807 68 44 3.0 16.0 0.00 0.00 0.00 52 1018.9
20260501233307 68 67 4.0 12.0 0.00 0.00 0.00 51 1019.1
20260501232808 68 22 4.0 12.0 0.00 0.00 0.00 52 1019.0
20260501232307 68 358 6.0 12.0 0.00 0.00 0.00 52 1019.2
20260501231806 68 88 3.0 12.0 0.00 0.00 0.00 52 1019.1
20260501231307 68 45 3.0 13.0 0.00 0.00 0.00 52 1019.3
20260501230807 68 230 5.0 13.0 0.00 0.00 0.00 52 1019.2
20260501230308 68 45 3.0 13.0 0.00 0.00 0.00 52 1019.3
20260501225807 68 69 6.0 13.0 0.00 0.00 0.00 52 1019.0
20260501224808 68 22 4.0 13.0 0.00 0.00 0.00 52 1019.2
20260501224307 68 66 6.0 13.0 0.00 0.00 0.00 52 1019.2
20260501223807 68 341 5.0 14.0 0.00 0.00 0.00 52 1019.2
20260501223307 68 22 6.0 12.0 0.00 0.00 0.00 52 1019.3
20260501222807 67 89 3.0 13.0 0.00 0.00 0.00 53 1019.0
20260501222307 67 0 5.0 13.0 0.00 0.00 0.00 53 1019.1
20260501221307 67 0 3.0 8.0 0.00 0.00 0.00 53 1019.2
20260501220807 67 85 3.0 8.0 0.00 0.00 0.00 53 1019.2
20260501220307 67 318 3.0 7.0 0.00 0.00 0.00 53 1019.1
20260501215807 67 41 5.0 9.0 0.00 0.00 0.00 53 1019.2
20260501215307 67 4 5.0 9.0 0.00 0.00 0.00 52 1019.1
20260501214807 67 65 3.0 7.0 0.00 0.00 0.00 53 1018.9
20260501214308 67 48 5.0 9.0 0.00 0.00 0.00 52 1018.8
20260501213307 67 3 5.0 10.0 0.00 0.00 0.00 52 1018.9
20260501212808 67 3 6.0 10.0 0.00 0.00 0.00 52 1018.8
20260501212307 67 317 5.0 10.0 0.00 0.00 0.00 52 1018.7
20260501211807 67 340 6.0 12.0 0.00 0.00 0.00 52 1018.7
20260501211307 67 20 5.0 12.0 0.00 0.00 0.00 51 1018.5
20260501210807 68 316 5.0 12.0 0.00 0.00 0.00 51 1018.5
20260501205809 68 41 3.0 8.0 0.00 0.00 0.00 51 1018.5
20260501205307 68 0 4.0 9.0 0.00 0.00 0.00 51 1018.4
20260501204807 68 359 5.0 10.0 0.00 0.00 0.00 51 1018.5
20260501204308 68 22 4.0 8.0 0.00 0.00 0.00 51 1018.2
20260501203807 68 19 5.0 12.0 0.00 0.00 0.00 50 1018.4
20260501203308 68 66 4.0 9.0 0.00 0.00 0.00 50 1018.3
20260501202807 68 23 6.0 14.0 0.00 0.00 0.00 50 1018.4
20260501202307 68 46 7.0 12.0 0.00 0.00 0.00 50 1018.3
20260501201807 68 357 7.0 13.0 0.00 0.00 0.00 50 1018.4
20260501200807 68 0 6.0 18.0 0.00 0.00 0.00 50 1018.4
20260501200308 68 337 5.0 9.0 0.00 0.00 0.00 50 1018.3
20260501195807 68 178 5.0 10.0 0.00 0.00 0.00 50 1018.2
20260501195307 68 1 3.0 10.0 0.00 0.00 0.00 51 1018.3
20260501194808 67 293 3.0 9.0 0.00 0.00 0.00 51 1018.2
20260501194308 67 0 3.0 7.0 0.00 0.00 0.00 52 1018.3
20260501193807 67 44 3.0 8.0 0.00 0.00 0.00 52 1018.5
20260501193307 67 21 5.0 8.0 0.00 0.00 0.00 52 1018.3
20260501192807 67 359 3.0 8.0 0.00 0.00 0.00 52 1018.4
20260501191807 67 339 3.0 7.0 0.00 0.00 0.00 52 1018.7
20260501190807 67 0 2.0 6.0 0.00 0.00 0.00 53 1018.5
20260501185307 67 0 3.0 5.0 0.00 0.00 0.00 53 1018.4
20260501184807 67 42 3.0 7.0 0.00 0.00 0.00 53 1018.5
20260501183807 66 334 1.0 7.0 0.00 0.00 0.00 54 1018.7
20260501183307 66 0 3.0 7.0 0.00 0.00 0.00 54 1018.7
20260501182808 66 338 2.0 5.0 0.00 0.00 0.00 54 1018.7
20260501181807 66 0 2.0 6.0 0.00 0.00 0.00 54 1018.6
20260501181307 67 336 1.0 5.0 0.00 0.00 0.00 54 1018.7
20260501180808 67 338 2.0 6.0 0.00 0.00 0.00 54 1018.6
20260501180308 67 43 3.0 7.0 0.00 0.00 0.00 54 1018.6
20260501175807 67 26 3.0 7.0 0.00 0.00 0.00 54 1018.5
20260501175307 67 342 3.0 9.0 0.00 0.00 0.00 54 1018.7
20260501174807 67 0 2.0 6.0 0.00 0.00 0.00 54 1018.8
20260501173807 66 317 3.0 8.0 0.00 0.00 0.00 55 1018.7
20260501173307 66 21 4.0 8.0 0.00 0.00 0.00 55 1018.7
20260501172307 65 340 4.0 8.0 0.00 0.00 0.00 57 1018.8
20260501171807 65 0 2.0 6.0 0.00 0.00 0.00 59 1018.9
20260501171307 64 0 1.0 7.0 0.00 0.00 0.00 59 1018.9
20260501170306 64 45 1.0 5.0 0.00 0.00 0.00 60 1018.9
20260501165808 64 1 2.0 5.0 0.00 0.00 0.00 60 1019.0
20260501165307 64 20 1.0 3.0 0.00 0.00 0.00 61 1019.2
20260501164807 63 22 1.0 3.0 0.00 0.00 0.00 61 1019.1
20260501164308 64 45 1.0 3.0 0.00 0.00 0.00 61 1019.2
20260501163807 63 22 1.0 3.0 0.00 0.00 0.00 61 1019.0